TAX09JF LPMA-LPPR

Flight info

Callsign TAX09JF
Flight time 1h 40m
Altitude 36000
Route DEGUN DCT VABEM DCT ASMAR DCT DIRMA DCT ASMOV
Aircraft A320/M-SDE3FGHIRWY/LB1

Departure

Time 2026-05-05 19:24
Airport Cristiano Ronaldo International Airport (LPMA)

Arrival

Time 2026-05-05 21:05
Airport Francisco de Sá Carneiro Airport (LPPR)
Time Latitude Longitude Altitude Speed Heading
2026-05-05 18:57 32.69389 -16.77631 175 ft 0 kts 138°
2026-05-05 19:10 32.69391 -16.77633 175 ft 2 kts 138°
2026-05-05 19:10 32.69409 -16.77653 175 ft 2 kts 138°
2026-05-05 19:10 32.69425 -16.77666 175 ft 4 kts 175°
2026-05-05 19:11 32.69448 -16.77658 175 ft 4 kts 221°
2026-05-05 19:11 32.69466 -16.77637 175 ft 4 kts 226°
2026-05-05 19:11 32.69470 -16.77633 175 ft 0 kts 226°
2026-05-05 19:11 32.69472 -16.77630 176 ft 1 kts 227°
2026-05-05 19:12 32.69473 -16.77628 175 ft 0 kts 227°
2026-05-05 19:13 32.69461 -16.77644 175 ft 7 kts 227°
2026-05-05 19:14 32.69378 -16.77750 175 ft 21 kts 227°
2026-05-05 19:14 32.69296 -16.77875 175 ft 6 kts 256°
2026-05-05 19:14 32.69295 -16.77876 175 ft 0 kts 258°
2026-05-05 19:15 32.69290 -16.77902 175 ft 11 kts 260°
2026-05-05 19:15 32.69275 -16.78039 175 ft 17 kts 242°
2026-05-05 19:15 32.69191 -16.78143 175 ft 26 kts 225°
2026-05-05 19:16 32.69061 -16.78300 175 ft 36 kts 223°
2026-05-05 19:16 32.68908 -16.78411 175 ft 22 kts 208°
2026-05-05 19:16 32.68916 -16.78468 175 ft 7 kts 30°
2026-05-05 19:16 32.68920 -16.78463 175 ft 0 kts 40°
2026-05-05 19:17 32.68923 -16.78460 175 ft 0 kts 43°
2026-05-05 19:17 32.68924 -16.78459 175 ft 0 kts 44°
2026-05-05 19:23 32.69100 -16.78252 175 ft 74 kts 44°
2026-05-05 19:24 32.69416 -16.77883 175 ft 118 kts 44°
2026-05-05 19:24 32.70133 -16.77056 401 ft 157 kts 42°
2026-05-05 19:24 32.70892 -16.76110 1250 ft 160 kts 49°
2026-05-05 19:24 32.71437 -16.74837 1663 ft 192 kts 80°
2026-05-05 19:25 32.71164 -16.73169 1931 ft 220 kts 111°
2026-05-05 19:25 32.70505 -16.71483 2435 ft 231 kts 110°
2026-05-05 19:25 32.69827 -16.69662 2819 ft 247 kts 111°
2026-05-05 19:25 32.69155 -16.67782 3711 ft 247 kts 109°
2026-05-05 19:26 32.68486 -16.65837 4336 ft 260 kts 109°
2026-05-05 19:26 32.67817 -16.63822 5084 ft 268 kts 109°
2026-05-05 19:26 32.67140 -16.61744 5873 ft 271 kts 109°
2026-05-05 19:26 32.66460 -16.59643 6680 ft 274 kts 109°
2026-05-05 19:27 32.65776 -16.57509 7410 ft 279 kts 107°
2026-05-05 19:27 32.65526 -16.55246 8111 ft 280 kts 79°
2026-05-05 19:27 32.66229 -16.53116 8831 ft 281 kts 54°
2026-05-05 19:27 32.67523 -16.51368 9558 ft 284 kts 43°
2026-05-05 19:28 32.68950 -16.49728 10252 ft 289 kts 41°
2026-05-05 19:28 32.70470 -16.48040 10517 ft 311 kts 40°
2026-05-05 19:28 32.72111 -16.46226 10707 ft 333 kts 41°
2026-05-05 19:28 32.73829 -16.44307 11174 ft 343 kts 41°
2026-05-05 19:29 32.75586 -16.42333 11673 ft 351 kts 41°
2026-05-05 19:29 32.77362 -16.40319 12272 ft 354 kts 42°
2026-05-05 19:29 32.79142 -16.38295 12850 ft 358 kts 41°
2026-05-05 19:29 32.80963 -16.36223 13404 ft 363 kts 41°
2026-05-05 19:30 32.82793 -16.34131 13974 ft 368 kts 41°
2026-05-05 19:30 32.84523 -16.32153 14418 ft 372 kts 42°
2026-05-05 19:30 32.86390 -16.30018 15027 ft 374 kts 40°
2026-05-05 19:30 32.88279 -16.27854 15487 ft 378 kts 41°
2026-05-05 19:31 32.90170 -16.25684 16174 ft 378 kts 43°
2026-05-05 19:31 32.92071 -16.23499 16626 ft 383 kts 41°
2026-05-05 19:31 32.93999 -16.21283 17123 ft 387 kts 41°
2026-05-05 19:31 32.95958 -16.19031 17511 ft 394 kts 41°
2026-05-05 19:32 32.97936 -16.16756 18025 ft 397 kts 41°
2026-05-05 19:32 32.99931 -16.14459 18518 ft 400 kts 42°
2026-05-05 19:32 33.01936 -16.12151 18954 ft 403 kts 42°
2026-05-05 19:32 33.03960 -16.09819 19400 ft 406 kts 42°
2026-05-05 19:33 33.05994 -16.07473 19842 ft 409 kts 42°
2026-05-05 19:33 33.08047 -16.05104 20259 ft 412 kts 41°
2026-05-05 19:33 33.10113 -16.02719 20677 ft 415 kts 41°
2026-05-05 19:33 33.12194 -16.00314 21093 ft 418 kts 41°
2026-05-05 19:34 33.14289 -15.97892 21493 ft 421 kts 41°
2026-05-05 19:34 33.16398 -15.95452 21901 ft 424 kts 41°
2026-05-05 19:34 33.18519 -15.92996 22321 ft 426 kts 41°
2026-05-05 19:35 33.22807 -15.88025 23090 ft 432 kts 41°
2026-05-05 19:35 33.24973 -15.85513 23475 ft 435 kts 41°
2026-05-05 19:35 33.27152 -15.82983 23814 ft 438 kts 41°
2026-05-05 19:35 33.29342 -15.80436 24134 ft 440 kts 41°
2026-05-05 19:36 33.31543 -15.77876 24467 ft 442 kts 41°
2026-05-05 19:36 33.33749 -15.75307 24775 ft 444 kts 41°
2026-05-05 19:36 33.35973 -15.72716 25085 ft 447 kts 41°
2026-05-05 19:36 33.38204 -15.70116 25384 ft 449 kts 41°
2026-05-05 19:37 33.40444 -15.67504 25676 ft 451 kts 41°
2026-05-05 19:37 33.42777 -15.64985 25937 ft 451 kts 33°
2026-05-05 19:37 33.45402 -15.62934 26246 ft 450 kts 27°
2026-05-05 19:37 33.48104 -15.61038 26562 ft 451 kts 26°
2026-05-05 19:38 33.50841 -15.59179 26817 ft 454 kts 26°
2026-05-05 19:38 33.53594 -15.57308 27070 ft 456 kts 26°
2026-05-05 19:38 33.56353 -15.55407 27337 ft 459 kts 26°
2026-05-05 19:38 33.59116 -15.53475 27604 ft 461 kts 27°
2026-05-05 19:39 33.61881 -15.51517 27867 ft 463 kts 27°
2026-05-05 19:39 33.64656 -15.49536 28113 ft 465 kts 27°
2026-05-05 19:39 33.67442 -15.47536 28354 ft 467 kts 27°
2026-05-05 19:39 33.70236 -15.45526 28599 ft 469 kts 27°
2026-05-05 19:40 33.73036 -15.43509 28836 ft 471 kts 27°
2026-05-05 19:40 33.75855 -15.41477 29094 ft 473 kts 27°
2026-05-05 19:40 33.78684 -15.39438 29272 ft 476 kts 27°
2026-05-05 19:40 33.81528 -15.37387 29465 ft 479 kts 27°
2026-05-05 19:41 33.84395 -15.35319 29709 ft 480 kts 27°
2026-05-05 19:41 33.87250 -15.33256 30010 ft 480 kts 27°
2026-05-05 19:41 33.90110 -15.31188 30330 ft 478 kts 27°
2026-05-05 19:41 33.92961 -15.29125 30605 ft 478 kts 27°
2026-05-05 19:42 33.95810 -15.27063 30857 ft 477 kts 27°
2026-05-05 19:42 33.98656 -15.25002 31116 ft 477 kts 27°
2026-05-05 19:42 34.01498 -15.22942 31385 ft 477 kts 27°
2026-05-05 19:42 34.04336 -15.20883 31686 ft 475 kts 27°
2026-05-05 19:43 34.07156 -15.18835 32074 ft 471 kts 27°
2026-05-05 19:43 34.09961 -15.16795 32389 ft 470 kts 27°
2026-05-05 19:43 34.12765 -15.14757 32586 ft 471 kts 27°
2026-05-05 19:43 34.15571 -15.12716 32783 ft 472 kts 27°
2026-05-05 19:44 34.18381 -15.10670 33051 ft 471 kts 27°
2026-05-05 19:44 34.21222 -15.08600 33352 ft 470 kts 27°
2026-05-05 19:44 34.24015 -15.06561 33635 ft 468 kts 27°
2026-05-05 19:44 34.26797 -15.04531 33882 ft 468 kts 27°
2026-05-05 19:45 34.29587 -15.02492 34092 ft 468 kts 27°
2026-05-05 19:45 34.35189 -14.98398 34144 ft 471 kts 28°
2026-05-05 19:46 34.40762 -14.94312 34134 ft 465 kts 28°
2026-05-05 19:46 34.46282 -14.90261 34143 ft 464 kts 27°
2026-05-05 19:47 34.51797 -14.86209 34148 ft 464 kts 27°
2026-05-05 19:47 34.57321 -14.82145 34147 ft 465 kts 27°
2026-05-05 19:48 34.62851 -14.78061 34152 ft 466 kts 28°
2026-05-05 19:48 34.68395 -14.73969 34153 ft 467 kts 28°
2026-05-05 19:49 34.73948 -14.69868 34148 ft 467 kts 28°
2026-05-05 19:49 34.79504 -14.65753 34152 ft 468 kts 28°
2026-05-05 19:50 34.85058 -14.61632 34151 ft 468 kts 28°
2026-05-05 19:50 34.90614 -14.57503 34161 ft 468 kts 28°
2026-05-05 19:51 34.96167 -14.53369 34154 ft 468 kts 28°
2026-05-05 19:51 35.01723 -14.49227 34155 ft 467 kts 28°
2026-05-05 19:52 35.07304 -14.45060 34154 ft 467 kts 28°
2026-05-05 19:52 35.12837 -14.40921 34157 ft 466 kts 28°
2026-05-05 19:53 35.18366 -14.36780 34157 ft 466 kts 28°
2026-05-05 19:53 35.23889 -14.32636 34158 ft 465 kts 28°
2026-05-05 19:54 35.29402 -14.28492 34154 ft 465 kts 28°
2026-05-05 19:54 35.34914 -14.24343 34156 ft 465 kts 28°
2026-05-05 19:55 35.40384 -14.20219 34171 ft 465 kts 28°
2026-05-05 19:55 35.45926 -14.16034 34163 ft 465 kts 28°
2026-05-05 19:56 35.51398 -14.11895 34157 ft 465 kts 28°
2026-05-05 19:56 35.56909 -14.07719 34159 ft 465 kts 28°
2026-05-05 19:57 35.62411 -14.03527 34157 ft 466 kts 28°
2026-05-05 19:57 35.67925 -13.99336 34158 ft 466 kts 28°
2026-05-05 19:58 35.73441 -13.95150 34154 ft 466 kts 28°
2026-05-05 19:58 35.78966 -13.90941 34167 ft 467 kts 28°
2026-05-05 19:59 35.84487 -13.86722 34164 ft 467 kts 28°
2026-05-05 19:59 35.90015 -13.82491 34169 ft 468 kts 28°
2026-05-05 20:00 35.95539 -13.78257 34170 ft 468 kts 28°
2026-05-05 20:00 36.01070 -13.74010 34158 ft 468 kts 28°
2026-05-05 20:01 36.06601 -13.69754 34166 ft 468 kts 28°
2026-05-05 20:01 36.12128 -13.65485 34159 ft 468 kts 28°
2026-05-05 20:02 36.16759 -13.61921 34155 ft 468 kts 28°
2026-05-05 20:02 36.22287 -13.57655 34178 ft 468 kts 28°
2026-05-05 20:03 36.27815 -13.53376 34168 ft 468 kts 28°
2026-05-05 20:03 36.33339 -13.49092 34160 ft 469 kts 28°
2026-05-05 20:04 36.38863 -13.44801 34161 ft 469 kts 28°
2026-05-05 20:04 36.44391 -13.40500 34155 ft 468 kts 28°
2026-05-05 20:05 36.49909 -13.36199 34171 ft 468 kts 28°
2026-05-05 20:05 36.55444 -13.31920 34156 ft 467 kts 25°
2026-05-05 20:06 36.61242 -13.28352 34163 ft 464 kts 20°
2026-05-05 20:06 36.67115 -13.25025 34157 ft 464 kts 20°
2026-05-05 20:07 36.72979 -13.21661 34160 ft 464 kts 20°
2026-05-05 20:07 36.78827 -13.18239 34166 ft 465 kts 20°
2026-05-05 20:08 36.84670 -13.14788 34161 ft 465 kts 20°
2026-05-05 20:08 36.90510 -13.11328 34154 ft 464 kts 20°
2026-05-05 20:09 36.96343 -13.07869 34164 ft 464 kts 20°
2026-05-05 20:09 37.02169 -13.04409 34174 ft 464 kts 20°
2026-05-05 20:10 37.07994 -13.00945 34161 ft 463 kts 20°
2026-05-05 20:10 37.13817 -12.97476 34155 ft 463 kts 20°
2026-05-05 20:11 37.19618 -12.94014 34158 ft 462 kts 20°
2026-05-05 20:11 37.25424 -12.90543 34170 ft 462 kts 20°
2026-05-05 20:12 37.31225 -12.87070 34162 ft 462 kts 20°
2026-05-05 20:12 37.37023 -12.83592 34159 ft 462 kts 20°
2026-05-05 20:13 37.42810 -12.80115 34159 ft 462 kts 21°
2026-05-05 20:13 37.48614 -12.76621 34164 ft 462 kts 20°
2026-05-05 20:14 37.54422 -12.73119 34172 ft 463 kts 20°
2026-05-05 20:14 37.60245 -12.69602 34166 ft 464 kts 20°
2026-05-05 20:15 37.66072 -12.66077 34161 ft 465 kts 20°
2026-05-05 20:15 37.71901 -12.62544 34166 ft 465 kts 20°
2026-05-05 20:16 37.77737 -12.59000 34160 ft 466 kts 21°
2026-05-05 20:16 37.83577 -12.55448 34162 ft 466 kts 21°
2026-05-05 20:17 37.89419 -12.51888 34160 ft 466 kts 21°
2026-05-05 20:17 37.95259 -12.48323 34161 ft 466 kts 21°
2026-05-05 20:18 38.01096 -12.44753 34175 ft 466 kts 21°
2026-05-05 20:18 38.06937 -12.41175 34164 ft 466 kts 21°
2026-05-05 20:19 38.12773 -12.37593 34162 ft 466 kts 20°
2026-05-05 20:19 38.18606 -12.34008 34159 ft 465 kts 20°
2026-05-05 20:20 38.24435 -12.30417 34176 ft 465 kts 21°
2026-05-05 20:20 38.30253 -12.26828 34162 ft 465 kts 21°
2026-05-05 20:21 38.36073 -12.23231 34152 ft 464 kts 21°
2026-05-05 20:21 38.41882 -12.19634 34158 ft 464 kts 21°
2026-05-05 20:22 38.47682 -12.16036 34160 ft 463 kts 21°
2026-05-05 20:22 38.53478 -12.12434 34163 ft 463 kts 21°
2026-05-05 20:23 38.59270 -12.08828 34155 ft 462 kts 21°
2026-05-05 20:23 38.65083 -12.05203 34158 ft 461 kts 21°
2026-05-05 20:24 38.70808 -12.01625 34152 ft 461 kts 21°
2026-05-05 20:24 38.76604 -11.97998 34166 ft 460 kts 21°
2026-05-05 20:25 38.82310 -11.94419 34158 ft 460 kts 21°
2026-05-05 20:25 38.88088 -11.90790 34156 ft 459 kts 21°
2026-05-05 20:26 38.93774 -11.87211 34155 ft 458 kts 21°
2026-05-05 20:26 38.99490 -11.83607 34174 ft 457 kts 21°
2026-05-05 20:27 39.05231 -11.79982 34155 ft 456 kts 21°
2026-05-05 20:27 39.10926 -11.76378 34156 ft 456 kts 21°
2026-05-05 20:28 39.16606 -11.72777 34150 ft 455 kts 21°
2026-05-05 20:28 39.22277 -11.69175 34174 ft 454 kts 22°
2026-05-05 20:29 39.27903 -11.65595 34146 ft 453 kts 22°
2026-05-05 20:29 39.33555 -11.61993 34143 ft 452 kts 22°
2026-05-05 20:30 39.38777 -11.57690 34157 ft 459 kts 39°
2026-05-05 20:30 39.43227 -11.51732 34142 ft 461 kts 44°
2026-05-05 20:31 39.47535 -11.45665 34167 ft 460 kts 44°
2026-05-05 20:31 39.51917 -11.39546 34149 ft 460 kts 44°
2026-05-05 20:32 39.56253 -11.33544 34147 ft 459 kts 44°
2026-05-05 20:32 39.60647 -11.27474 34142 ft 459 kts 44°
2026-05-05 20:33 39.65008 -11.21439 34143 ft 458 kts 44°
2026-05-05 20:33 39.69362 -11.15401 34142 ft 458 kts 44°
2026-05-05 20:34 39.73679 -11.09400 34155 ft 458 kts 44°
2026-05-05 20:34 39.78062 -11.03294 34144 ft 458 kts 44°
2026-05-05 20:35 39.82331 -10.97330 34044 ft 440 kts 44°
2026-05-05 20:35 39.84398 -10.94437 33730 ft 433 kts 44°
2026-05-05 20:35 39.86431 -10.91590 33383 ft 428 kts 43°
2026-05-05 20:35 39.88451 -10.88762 33052 ft 424 kts 43°
2026-05-05 20:36 39.90453 -10.85958 32665 ft 421 kts 43°
2026-05-05 20:36 39.92441 -10.83171 32300 ft 418 kts 43°
2026-05-05 20:36 39.94414 -10.80401 31945 ft 416 kts 43°
2026-05-05 20:36 39.96350 -10.77682 31592 ft 413 kts 43°
2026-05-05 20:37 39.98297 -10.74943 31266 ft 411 kts 43°
2026-05-05 20:37 39.99603 -10.73105 31024 ft 409 kts 43°
2026-05-05 20:37 40.02179 -10.69475 30558 ft 406 kts 43°
2026-05-05 20:37 40.04095 -10.66773 30200 ft 404 kts 43°
2026-05-05 20:38 40.05998 -10.64087 29795 ft 402 kts 43°
2026-05-05 20:38 40.07885 -10.61420 29430 ft 398 kts 43°
2026-05-05 20:38 40.09756 -10.58773 29068 ft 395 kts 43°
2026-05-05 20:38 40.11610 -10.56149 28705 ft 392 kts 43°
2026-05-05 20:39 40.13428 -10.53572 28341 ft 389 kts 43°
2026-05-05 20:39 40.15276 -10.50953 27994 ft 386 kts 43°
2026-05-05 20:39 40.17067 -10.48410 27635 ft 384 kts 43°
2026-05-05 20:39 40.18868 -10.45853 27285 ft 381 kts 43°
2026-05-05 20:40 40.20078 -10.44134 27052 ft 379 kts 43°
2026-05-05 20:40 40.21859 -10.41601 26704 ft 377 kts 43°
2026-05-05 20:40 40.23629 -10.39082 26363 ft 375 kts 43°
2026-05-05 20:40 40.25387 -10.36577 26024 ft 373 kts 43°
2026-05-05 20:41 40.27137 -10.34082 25687 ft 371 kts 43°
2026-05-05 20:41 40.28875 -10.31602 25354 ft 369 kts 43°
2026-05-05 20:41 40.30607 -10.29130 25019 ft 368 kts 43°
2026-05-05 20:41 40.32331 -10.26665 24678 ft 366 kts 43°
2026-05-05 20:42 40.34048 -10.24209 24348 ft 365 kts 43°
2026-05-05 20:42 40.35760 -10.21759 24014 ft 364 kts 43°
2026-05-05 20:42 40.37464 -10.19317 23678 ft 363 kts 43°
2026-05-05 20:42 40.39166 -10.16877 23283 ft 362 kts 43°
2026-05-05 20:43 40.40857 -10.14449 22923 ft 360 kts 43°
2026-05-05 20:43 40.42540 -10.12032 22574 ft 358 kts 43°
2026-05-05 20:43 40.44213 -10.09626 22250 ft 355 kts 43°
2026-05-05 20:43 40.45873 -10.07239 21909 ft 353 kts 43°
2026-05-05 20:44 40.47526 -10.04858 21599 ft 351 kts 43°
2026-05-05 20:44 40.49167 -10.02494 21262 ft 350 kts 43°
2026-05-05 20:44 40.50800 -10.00139 20934 ft 348 kts 43°
2026-05-05 20:44 40.52427 -9.97791 20610 ft 346 kts 43°
2026-05-05 20:45 40.55651 -9.93133 19967 ft 343 kts 43°
2026-05-05 20:45 40.57252 -9.90819 19651 ft 342 kts 43°
2026-05-05 20:45 40.58847 -9.88510 19333 ft 340 kts 43°
2026-05-05 20:46 40.60434 -9.86210 19018 ft 339 kts 43°
2026-05-05 20:46 40.62018 -9.83914 18702 ft 338 kts 43°
2026-05-05 20:46 40.63597 -9.81624 18386 ft 337 kts 43°
2026-05-05 20:46 40.65171 -9.79338 18024 ft 336 kts 43°
2026-05-05 20:47 40.66758 -9.77033 17682 ft 335 kts 43°
2026-05-05 20:47 40.68317 -9.74765 17347 ft 333 kts 43°
2026-05-05 20:47 40.69845 -9.72540 17033 ft 331 kts 43°
2026-05-05 20:47 40.71383 -9.70301 16720 ft 328 kts 43°
2026-05-05 20:48 40.72930 -9.68046 16416 ft 326 kts 43°
2026-05-05 20:48 40.74449 -9.65830 16106 ft 324 kts 43°
2026-05-05 20:48 40.75955 -9.63631 15801 ft 322 kts 44°
2026-05-05 20:48 40.77451 -9.61446 15500 ft 320 kts 44°
2026-05-05 20:49 40.78939 -9.59270 15197 ft 318 kts 44°
2026-05-05 20:49 40.80421 -9.57104 14898 ft 317 kts 44°
2026-05-05 20:49 40.81887 -9.54958 14600 ft 315 kts 44°
2026-05-05 20:49 40.83354 -9.52810 14294 ft 313 kts 44°
2026-05-05 20:50 40.84804 -9.50684 14012 ft 312 kts 44°
2026-05-05 20:50 40.86285 -9.48605 13731 ft 308 kts 41°
2026-05-05 20:50 40.87794 -9.46628 13462 ft 304 kts 40°
2026-05-05 20:50 40.89299 -9.44680 13206 ft 301 kts 40°
2026-05-05 20:51 40.90781 -9.42753 12935 ft 298 kts 40°
2026-05-05 20:51 40.92247 -9.40834 12674 ft 295 kts 41°
2026-05-05 20:51 40.93686 -9.38939 12471 ft 290 kts 41°
2026-05-05 20:51 40.95113 -9.37059 12166 ft 289 kts 40°
2026-05-05 20:52 40.96403 -9.35017 11854 ft 294 kts 59°
2026-05-05 20:52 40.96936 -9.32409 11653 ft 296 kts 81°
2026-05-05 20:52 40.97002 -9.29675 11356 ft 298 kts 86°
2026-05-05 20:52 40.96971 -9.26937 11063 ft 298 kts 88°
2026-05-05 20:53 40.96925 -9.24203 10772 ft 297 kts 88°
2026-05-05 20:53 40.96881 -9.21472 10471 ft 297 kts 88°
2026-05-05 20:53 40.96845 -9.18746 10227 ft 294 kts 87°
2026-05-05 20:53 40.96815 -9.16071 10069 ft 289 kts 88°
2026-05-05 20:54 40.96790 -9.13413 9759 ft 289 kts 86°
2026-05-05 20:54 40.96768 -9.10760 9458 ft 288 kts 86°
2026-05-05 20:54 40.96747 -9.08109 9169 ft 287 kts 86°
2026-05-05 20:54 40.96727 -9.05480 8878 ft 287 kts 87°
2026-05-05 20:55 40.96707 -9.02782 8583 ft 286 kts 87°
2026-05-05 20:55 40.96686 -9.00178 8295 ft 285 kts 87°
2026-05-05 20:55 40.96666 -8.97553 7941 ft 286 kts 86°
2026-05-05 20:55 40.96644 -8.94945 7612 ft 280 kts 86°
2026-05-05 20:56 40.96622 -8.92394 7310 ft 274 kts 86°
2026-05-05 20:56 40.96600 -8.89908 7035 ft 267 kts 87°
2026-05-05 20:56 40.96579 -8.87482 6770 ft 261 kts 86°
2026-05-05 20:56 40.96559 -8.85117 6512 ft 254 kts 86°
2026-05-05 20:57 40.96538 -8.82807 6250 ft 248 kts 86°
2026-05-05 20:57 40.96518 -8.80557 6024 ft 242 kts 86°
2026-05-05 20:57 40.96497 -8.78343 5787 ft 240 kts 86°
2026-05-05 20:57 40.96476 -8.76153 5591 ft 236 kts 86°
2026-05-05 20:58 40.96468 -8.73982 5381 ft 237 kts 82°
2026-05-05 20:58 40.96740 -8.71846 5161 ft 235 kts 72°
2026-05-05 20:58 40.97094 -8.69724 5085 ft 239 kts 73°
2026-05-05 20:58 40.97434 -8.67565 4963 ft 240 kts 74°
2026-05-05 20:59 40.97765 -8.65402 4866 ft 239 kts 74°
2026-05-05 20:59 40.98374 -8.63412 4722 ft 231 kts 46°
2026-05-05 20:59 40.99635 -8.62221 4620 ft 221 kts 18°
2026-05-05 20:59 41.01155 -8.61926 4338 ft 223 kts 355°
2026-05-05 21:00 41.02684 -8.62245 4089 ft 221 kts 348°
2026-05-05 21:00 41.04178 -8.62661 3982 ft 221 kts 347°
2026-05-05 21:00 41.05705 -8.63087 3703 ft 226 kts 347°
2026-05-05 21:00 41.07206 -8.63503 3408 ft 215 kts 348°
2026-05-05 21:01 41.08636 -8.63883 3132 ft 205 kts 348°
2026-05-05 21:01 41.09989 -8.64241 2861 ft 190 kts 348°
2026-05-05 21:01 41.11239 -8.64567 2636 ft 178 kts 349°
2026-05-05 21:01 41.12414 -8.64873 2405 ft 167 kts 348°
2026-05-05 21:02 41.13533 -8.65169 2209 ft 162 kts 348°
2026-05-05 21:02 41.14609 -8.65452 2028 ft 150 kts 348°
2026-05-05 21:02 41.15596 -8.65711 1784 ft 141 kts 348°
2026-05-05 21:02 41.16551 -8.65961 1613 ft 140 kts 348°
2026-05-05 21:03 41.17535 -8.66219 1417 ft 143 kts 348°
2026-05-05 21:03 41.18497 -8.66472 1229 ft 143 kts 349°
2026-05-05 21:03 41.19464 -8.66724 1028 ft 141 kts 348°
2026-05-05 21:03 41.20424 -8.66975 859 ft 143 kts 348°
2026-05-05 21:04 41.21401 -8.67234 703 ft 142 kts 348°
2026-05-05 21:04 41.22392 -8.67486 476 ft 146 kts 347°
2026-05-05 21:04 41.23403 -8.67757 285 ft 150 kts 348°
2026-05-05 21:04 41.24363 -8.68012 236 ft 128 kts 348°
2026-05-05 21:05 41.24996 -8.68170 233 ft 39 kts 355°
2026-05-05 21:05 41.25204 -8.68133 233 ft 23 kts 18°
2026-05-05 21:05 41.25287 -8.68065 235 ft 13 kts 70°
2026-05-05 21:05 41.25237 -8.68006 234 ft 11 kts 167°
2026-05-05 21:06 41.25166 -8.67985 235 ft 11 kts 168°
2026-05-05 21:06 41.25074 -8.67961 234 ft 18 kts 168°
2026-05-05 21:06 41.24931 -8.67922 234 ft 22 kts 168°
2026-05-05 21:06 41.24792 -8.67848 235 ft 21 kts 155°
2026-05-05 21:07 41.24652 -8.67798 234 ft 21 kts 168°
2026-05-05 21:07 41.24505 -8.67756 234 ft 24 kts 169°
2026-05-05 21:07 41.24341 -8.67713 234 ft 23 kts 164°
2026-05-05 21:07 41.24237 -8.67599 235 ft 15 kts 144°
2026-05-05 21:08 41.24142 -8.67557 236 ft 14 kts 169°
2026-05-05 21:08 41.24047 -8.67531 236 ft 14 kts 168°
2026-05-05 21:08 41.23957 -8.67507 234 ft 13 kts 168°
2026-05-05 21:08 41.23869 -8.67483 234 ft 13 kts 168°
2026-05-05 21:09 41.23784 -8.67461 237 ft 12 kts 172°
2026-05-05 21:09 41.23653 -8.67430 234 ft 33 kts 169°
2026-05-05 21:09 41.23551 -8.67389 236 ft 9 kts 143°
2026-05-05 21:09 41.23511 -8.67296 235 ft 5 kts 115°
2026-05-05 21:10 41.23509 -8.67290 236 ft 0 kts 114°